�_�ʐ�͌���@�Y���u�C�̈ړ��ʁi�������j,,,,,,,,,,,,
�@,Time,Time int.,,Lat.,,Long.,,Distance,,Direction,Speed,
Date(yyyy/mm/dd),(hh:mm),(hour),(min),(deg),(min),(deg),(min),(miles),(meter),(deg),(m/s),(knots)
2006/2/21,9:45,0,,36,46.002,137,13.248,,,,,
2006/2/21,9:50,0,5,36,46.044,137,13.236,0.04,79.71,347.02,0.27,0.52
2006/2/21,9:55,0,5,36,46.068,137,13.23,0.02,45.28,348.6,0.15,0.29
2006/2/21,10:00,0,5,36,46.098,137,13.224,0.03,56.2,350.83,0.19,0.36
2006/2/21,10:05,0,5,36,46.14,137,13.218,0.04,78.19,353.41,0.26,0.51
2006/2/21,10:10,0,5,36,46.176,137,13.206,0.04,68.94,344.96,0.23,0.45
2006/2/21,10:15,0,5,36,46.218,137,13.194,0.04,79.71,347.02,0.27,0.52
2006/2/21,10:20,0,5,36,46.242,137,13.2,0.02,45.28,11.34,0.15,0.29
2006/2/21,10:25,0,5,36,46.278,137,13.194,0.04,67.18,352.33,0.22,0.44
2006/2/21,10:30,0,5,36,46.308,137,13.152,0.05,83.57,311.57,0.28,0.54
2006/2/21,10:35,0,5,36,46.356,137,13.146,0.05,89.23,354.23,0.3,0.58
2006/2/21,10:40,0,5,36,46.38,137,13.134,0.03,47.85,338.06,0.16,0.31
2006/2/21,10:45,0,5,36,46.428,137,13.116,0.05,92.73,343.18,0.31,0.6
2006/2/21,10:50,0,5,36,46.428,137,13.104,0.01,17.85,269.97,0.06,0.12
2006/2/21,10:55,0,5,36,46.47,137,13.098,0.04,78.19,353.41,0.26,0.51
2006/2/21,11:00,0,5,36,46.488,137,13.092,0.02,34.47,344.96,0.11,0.22
2006/2/21,11:05,0,5,36,46.512,137,13.092,0.02,44.39,359.97,0.15,0.29
2006/2/21,11:10,0,5,36,46.536,137,13.074,0.03,51.84,328.87,0.17,0.34
2006/2/21,11:15,0,5,36,46.554,137,13.074,0.02,33.29,359.97,0.11,0.22
2006/2/21,11:20,0,5,36,46.56,137,13.062,0.01,21.02,301.83,0.07,0.14
2006/2/21,11:25,0,5,36,46.602,137,13.056,0.04,78.19,353.41,0.26,0.51
2006/2/21,11:30,0,5,36,46.614,137,13.05,0.01,23.92,338.06,0.08,0.16


�A,Time,Time int.,,Lat.,,Long.,,Distance,,Direction,Speed,
Date(yyyy/mm/dd),(hh:mm),(hour),(min),(deg),(min),(deg),(min),(miles),(meter),(deg),(m/s),(knots)
2006/2/21,11:45,0,,36,46.044,137,13.452,,,,,
2006/2/21,11:50,0,5,36,46.104,137,13.458,0.06,111.33,4.57,0.37,0.72
2006/2/21,11:55,0,5,36,46.176,137,13.434,0.07,137.87,344.95,0.46,0.89
2006/2/21,12:00,0,5,36,46.242,137,13.44,0.07,122.4,4.15,0.41,0.79
2006/2/21,12:05,0,5,36,46.29,137,13.428,0.05,90.56,348.59,0.3,0.59
2006/2/21,12:10,0,5,36,46.338,137,13.428,0.05,88.78,359.97,0.3,0.58
2006/2/21,12:15,0,5,36,46.404,137,13.416,0.07,123.37,351.64,0.41,0.8
2006/2/21,12:20,0,5,36,46.458,137,13.404,0.05,101.46,349.83,0.34,0.66
2006/2/21,12:25,0,5,36,46.494,137,13.404,0.04,66.58,359.97,0.22,0.43
2006/2/21,12:30,0,5,36,46.536,137,13.41,0.04,78.19,6.52,0.26,0.51
2006/2/21,12:35,0,5,36,46.59,137,13.392,0.06,103.4,344.96,0.34,0.67
2006/2/21,12:40,0,5,36,46.632,137,13.386,0.04,78.19,353.41,0.26,0.51
2006/2/21,12:45,0,5,36,46.68,137,13.374,0.05,90.56,348.6,0.3,0.59
2006/2/21,12:50,0,5,36,46.734,137,13.374,0.05,99.88,359.97,0.33,0.65
2006/2/21,12:55,0,5,36,46.764,137,13.356,0.03,61.61,334.2,0.21,0.4
2006/2/21,13:00,0,5,36,46.806,137,13.35,0.04,78.19,353.41,0.26,0.51
2006/2/21,13:05,0,5,36,46.854,137,13.344,0.05,89.23,354.22,0.3,0.58
2006/2/21,13:10,0,5,36,46.872,137,13.332,0.02,37.78,331.76,0.13,0.24
2006/2/21,13:15,0,5,36,46.914,137,13.332,0.04,77.68,359.97,0.26,0.5
2006/2/21,13:20,0,5,36,46.956,137,13.332,0.04,77.68,359.97,0.26,0.5
2006/2/21,13:25,0,5,36,46.986,137,13.32,0.03,58.29,342.13,0.19,0.38
2006/2/21,13:30,0,5,36,47.028,137,13.32,0.04,77.68,359.97,0.26,0.5
2006/2/21,13:35,0,5,36,47.046,137,13.308,0.02,37.78,331.76,0.13,0.24
2006/2/21,13:40,0,5,36,47.076,137,13.296,0.03,58.29,342.13,0.19,0.38
2006/2/21,13:45,0,5,36,47.088,137,13.278,0.02,34.78,309.62,0.12,0.23
2006/2/21,13:50,0,5,36,47.13,137,13.278,0.04,77.68,359.97,0.26,0.5
2006/2/21,13:55,0,5,36,47.154,137,13.272,0.02,45.28,348.6,0.15,0.29
2006/2/21,14:00,0,5,36,47.178,137,13.254,0.03,51.84,328.87,0.17,0.34
2006/2/21,14:05,0,5,36,47.202,137,13.236,0.03,51.84,328.87,0.17,0.34
2006/2/21,14:10,0,5,36,47.22,137,13.224,0.02,37.78,331.77,0.13,0.24
2006/2/21,14:15,0,5,36,47.232,137,13.2,0.02,42.04,301.83,0.14,0.27
2006/2/21,14:20,0,5,36,47.244,137,13.176,0.02,42.04,301.83,0.14,0.27
2006/2/21,14:25,0,5,36,47.256,137,13.152,0.02,42.04,301.84,0.14,0.27
2006/2/21,14:30,0,5,36,47.262,137,13.128,0.02,37.39,287.23,0.12,0.24
2006/2/21,14:35,0,5,36,47.28,137,13.098,0.03,55.68,306.69,0.19,0.36


�B,Time,Time int.,,Lat.,,Long.,,Distance,,Direction,Speed,
Date(yyyy/mm/dd),(hh:mm),(hour),(min),(deg),(min),(deg),(min),(miles),(meter),(deg),(m/s),(knots)
2006/2/21,9:45,0,,36,45.984,137,13.362,,,,,
2006/2/21,9:50,0,5,36,46.032,137,13.35,0.05,90.56,348.59,0.3,0.59
2006/2/21,9:55,0,5,36,46.104,137,13.326,0.07,137.87,344.95,0.46,0.89
2006/2/21,10:00,0,5,36,46.146,137,13.32,0.04,78.19,353.41,0.26,0.51
2006/2/21,10:05,0,5,36,46.158,137,13.314,0.01,23.92,338.05,0.08,0.16
2006/2/21,10:10,0,5,36,46.206,137,13.296,0.05,92.73,343.18,0.31,0.6
2006/2/21,10:15,0,5,36,46.218,137,13.266,0.03,49.85,296.4,0.17,0.32
2006/2/21,10:20,0,5,36,46.29,137,13.272,0.07,133.47,3.8,0.44,0.86
2006/2/21,10:25,0,5,36,46.326,137,13.26,0.04,68.94,344.96,0.23,0.45
2006/2/21,10:30,0,5,36,46.368,137,13.236,0.05,85.5,335.28,0.28,0.55
2006/2/21,10:45,0,15,36,46.494,137,13.2,0.13,239.12,347.02,0.27,0.52
2006/2/21,10:50,0,5,36,46.53,137,13.17,0.04,80.16,326.13,0.27,0.52
2006/2/21,10:55,0,5,36,46.578,137,13.164,0.05,89.23,354.23,0.3,0.58
2006/2/21,11:00,0,5,36,46.602,137,13.158,0.02,45.28,348.6,0.15,0.29
2006/2/21,11:05,0,5,36,46.638,137,13.14,0.04,71.77,338.06,0.24,0.47
2006/2/21,11:10,0,5,36,46.674,137,13.134,0.04,67.18,352.33,0.22,0.44
2006/2/21,11:15,0,5,36,46.698,137,13.134,0.02,44.39,359.97,0.15,0.29
2006/2/21,11:20,0,5,36,46.722,137,13.128,0.02,45.28,348.6,0.15,0.29
2006/2/21,11:25,0,5,36,46.764,137,13.122,0.04,78.19,353.41,0.26,0.51
2006/2/21,11:30,0,5,36,46.794,137,13.11,0.03,58.29,342.13,0.19,0.38


�C,Time,Time int.,,Lat.,,Long.,,Distance,,Direction,Speed,
Date(yyyy/mm/dd),(hh:mm),(hour),(min),(deg),(min),(deg),(min),(miles),(meter),(deg),(m/s),(knots)
2006/2/21,11:45,0,,36,45.978,137,13.548,,,,,
2006/2/21,11:50,0,5,36,46.026,137,13.572,0.05,95.69,21.88,0.32,0.62
2006/2/21,11:55,0,5,36,46.038,137,13.596,0.02,42.05,58.1,0.14,0.27
2006/2/21,12:00,0,5,36,46.086,137,13.602,0.05,89.23,5.71,0.3,0.58
2006/2/21,12:05,0,5,36,46.122,137,13.614,0.04,68.94,14.98,0.23,0.45
2006/2/21,12:10,0,5,36,46.164,137,13.626,0.04,79.71,12.91,0.27,0.52
2006/2/21,12:15,0,5,36,46.248,137,13.644,0.09,157.65,9.75,0.53,1.02
2006/2/21,12:25,0,10,36,46.266,137,13.638,0.02,34.47,344.95,0.06,0.11
2006/2/21,12:30,0,5,36,46.284,137,13.674,0.03,63.07,58.1,0.21,0.41
2006/2/21,12:35,0,5,36,46.326,137,13.656,0.04,82.17,340.94,0.27,0.53
2006/2/21,12:40,0,5,36,46.362,137,13.668,0.04,68.94,14.97,0.23,0.45
2006/2/21,12:45,0,5,36,46.386,137,13.68,0.03,47.85,21.88,0.16,0.31
2006/2/21,12:50,0,5,36,46.416,137,13.68,0.03,55.49,359.96,0.18,0.36
2006/2/21,12:55,0,5,36,46.398,137,13.734,0.05,86.97,112.47,0.29,0.56
2006/2/21,13:05,0,5,36,46.446,137,13.74,0.05,89.23,5.71,0.3,0.58
2006/2/21,13:10,0,5,36,46.482,137,13.74,0.04,66.58,359.96,0.22,0.43
2006/2/21,13:15,0,5,36,46.554,137,13.722,0.07,135.83,348.59,0.45,0.88
2006/2/21,13:20,0,5,36,46.584,137,13.722,0.03,55.49,359.96,0.18,0.36
2006/2/21,13:25,0,5,36,46.596,137,13.644,0.06,118.16,280.79,0.39,0.77
2006/2/21,13:30,0,5,36,46.644,137,13.656,0.05,90.56,11.33,0.3,0.59
2006/2/21,13:35,0,5,36,46.662,137,13.656,0.02,33.29,359.96,0.11,0.22
2006/2/21,13:40,0,5,36,46.692,137,13.644,0.03,58.29,342.13,0.19,0.38
2006/2/21,13:45,0,5,36,46.71,137,13.626,0.02,42.73,321.15,0.14,0.28
2006/2/21,13:50,0,5,36,46.74,137,13.584,0.05,83.57,311.57,0.28,0.54
2006/2/21,13:55,0,5,36,46.77,137,13.572,0.03,58.29,342.13,0.19,0.38
2006/2/21,14:00,0,5,36,46.794,137,13.548,0.03,56.97,321.15,0.19,0.37
2006/2/21,14:15,0,15,36,46.872,137,13.518,0.08,151.01,342.77,0.17,0.33
2006/2/21,14:20,0,5,36,46.896,137,13.47,0.05,84.08,301.83,0.28,0.54
2006/2/21,14:25,0,5,36,46.914,137,13.506,0.03,63.06,58.1,0.21,0.41
2006/2/21,14:30,0,5,36,46.914,137,13.482,0.02,35.71,269.97,0.12,0.23
